Location: Blanot
(47.1713°N, 4.2340°E)
Time: 08:09:24
(UTC+00:00)

USA 267 - Pass Details

Date: 14 July 2020
Orbit: 1102 x 1106 km, 123.0° (Epoch: 12 August)

Event Time Altitude Azimuth Distance (km) Brightness Sun altitude
Exits shadow 00:32:10 35° 195° (SSW) 1,705 3.7 -20.5°
Maximum altitude 00:33:52 41° 228° (SW) 1,555 3.7 -20.5°
Drops below altitude 10° 00:39:58 10° 297° (WNW) 2,964 5.7 -20.2°
Sets 00:42:39 0° 305° (NW) 3,925 6.4 -20.1°
